Regional Weather Roundup
Issued by NWS

Home | Current Version | Previous Version | Text Only | Print | Product List | Glossary On
Versions: 1 2 3 4 5 6 7 8 9 10 11 12 13 14 15 16 17 18 19 20 21 22 23 24 25 26 27 28 29 30 31 32 33 34 35 36 37 38 39 40 41 42 43 44 45 46 47 48 49 50
000
ASUS43 KLMK 301710
RWRKY
KENTUCKY REGIONAL WEATHER ROUNDUP
NATIONAL WEATHER SERVICE LOUISVILLE KY
100 PM EDT SAT MAY 30 2015

NOTE "FAIR" INDICATES FEW OR NO CLOUDS BELOW 12,000 FEET
WITH NO SIGNIFICANT WEATHER AND/OR OBSTRUCTIONS TO VISIBILITY.

KYZ001>023-026-027-061>063-070>075-301800-
WESTERN AND SOUTH CENTRAL KENTUCKY

CITY           SKY/WX    TMP DP  RH WIND       PRES   REMARKS
PADUCAH        PTSUNNY   80  67  64 S10G20    29.96F
HENDERSON      PTSUNNY   81  66  61 S20G25    29.98F
OWENSBORO      MOSUNNY   83  70  64 S16G23    30.01F
HOPKINSVILLE   PTSUNNY   81  68  64 S12       30.03F
BOWLING GREEN  MOSUNNY   85  66  53 SW17G28   30.06F
GLASGOW        MOSUNNY   83  65  53 S12G17    30.08F
$$

KYZ024-025-028>034-038-045-046-053-301800-
NORTH CENTRAL KENTUCKY

CITY           SKY/WX    TMP DP  RH WIND       PRES   REMARKS
LOUISVILLE/SDF LGT RAIN  83  65  54 S16G25    30.03F
LOUISVILLE/LOU MOSUNNY   84  65  52 S14G23    30.04F
FORT KNOX      MOSUNNY   82  67  59 S12       30.03F
$$

KYZ035>037-039>044-047>052-055>060-089>105-301800-
NORTHEAST KENTUCKY

CITY           SKY/WX    TMP DP  RH WIND       PRES   REMARKS
LEXINGTON      CLOUDY    80  67  64 SW10      30.10F
COVINGTON      MOSUNNY   82  68  62 SW10      30.05F
FRANKFORT      MOSUNNY   84  65  52 SW13G22   30.07F
$$

KYZ054-064>069-076>088-106>120-301800-
SOUTHEAST KENTUCKY

CITY           SKY/WX    TMP DP  RH WIND       PRES   REMARKS
JACKSON        SUNNY     82  61  48 VRB7      30.15F
LONDON         PTSUNNY   82  59  45 S10G18    30.15F
SOMERSET       PTSUNNY   77  63  61 S8        30.15S
MIDDLESBORO    MOSUNNY   82  61  49 SW3       30.17F
MONTICELLO     SUNNY     82  68  62 SE14      30.15F
$$



USA.gov is the U.S. government's official web portal to all federal, state and local government web resources and services.